Wind_Speed
47 48 49 50 51 52 53 54 55 54 54 54 54 53 52 51 51 50 50 49 51 51 52 53 51 50 49 50 51 51 50 50 51 50 50 51 52 52
46 46 47 48 49 50 50 51 50 50 50 49 49 49 50 49 48 47 46 48 49 48 49 50 51 51 50 51 51 51 50 50 50 52 52 52 53 53
44 44 44 45 46 46 46 46 46 46 45 45 46 46 45 46 46 45 46 46 47 47 48 49 51 53 53 52 52 52 52 52 52 53 53 54 54 55
41 41 42 42 42 42 42 42 41 41 40 40 39 39 41 43 43 45 46 47 47 47 48 48 49 51 52 52 52 52 53 53 54 54 54 54 55 56
39 39 39 39 38 38 37 37 36 36 36 36 35 35 36 37 39 41 42 44 45 46 46 47 48 50 51 51 51 53 53 53 54 54 54 55 56 57
36 36 36 36 36 35 35 34 34 34 33 33 33 33 33 35 37 38 40 42 44 45 46 47 49 49 50 51 52 52 53 54 54 55 56 56 57 58
34 34 34 34 34 33 33 33 32 31 30 30 31 32 32 33 35 37 39 41 43 45 46 48 50 52 53 53 54 54 54 55 55 56 57 58 58 59
32 32 32 32 32 31 31 31 30 29 29 30 31 32 34 35 37 39 41 42 44 46 48 50 52 53 54 55 55 55 55 55 55 55 56 56 57 57
31 31 31 31 31 31 31 30 30 31 31 32 33 35 36 37 39 41 42 44 46 48 49 51 53 54 54 54 54 54 54 53 53 52 52 53 53 54
31 31 31 31 31 31 31 32 32 32 33 34 35 36 38 39 41 43 45 46 48 50 51 51 52 53 53 53 53 53 52 51 51 51 51 52 52 52
31 31 31 31 31 32 33 33 33 34 35 36 38 39 40 41 43 44 46 47 49 50 50 50 51 52 53 53 53 53 52 51 51 51 51 51 51 50
31 31 31 32 32 33 33 34 35 36 37 38 39 41 42 43 45 46 47 48 50 50 51 51 52 51 51 52 52 52 51 50 49 49 48 48 47 46
31 31 32 33 34 34 35 36 37 38 39 41 42 44 45 46 47 48 49 50 50 51 51 51 50 50 48 47 49 49 48 46 45 44 44 43 42 42
32 33 33 34 35 36 36 37 39 40 42 43 45 46 47 48 49 50 50 50 50 51 51 49 47 46 45 44 43 44 44 43 41 40 39 39 39 38
33 33 34 35 36 37 38 39 41 42 44 45 46 47 48 48 49 50 50 50 50 50 48 45 43 41 40 39 38 39 40 40 39 38 36 36 36 35
34 34 35 36 37 39 40 41 43 44 46 47 47 48 49 49 50 50 50 50 49 47 45 42 40 38 37 36 36 36 36 36 36 35 34 33 34 33
35 36 37 38 39 40 42 43 44 46 47 48 48 49 50 50 50 50 50 48 46 45 43 41 38 36 35 34 34 34 34 33 33 32 32 31 33 33
36 37 38 39 40 42 43 45 46 47 48 49 50 51 51 51 50 50 49 47 44 42 40 39 37 34 33 33 34 33 32 31 31 31 31 30 31 33
37 38 39 40 42 43 45 46 47 48 49 50 51 51 50 50 49 48 47 44 42 40 39 37 36 34 32 31 33 34 33 32 31 31 31 30 30 32
38 39 40 41 43 45 46 47 48 49 50 51 51 50 49 49 48 46 45 43 40 39 38 37 36 34 33 31 30 33 36 34 32 31 31 31 30 31
39 40 41 43 44 46 47 48 49 50 51 51 50 49 48 47 46 45 43 42 40 38 36 36 36 36 34 33 31 32 35 36 33 31 31 30 29 30
40 41 42 43 45 47 48 49 50 51 51 50 49 48 47 46 45 44 42 41 39 37 36 35 36 36 35 34 32 31 32 34 34 32 31 30 28 27
40 42 43 44 46 48 49 50 51 50 50 49 48 47 46 45 44 43 41 40 38 36 35 34 34 34 35 34 32 31 31 31 31 31 31 31 29 28
Wind_Direction
292 293 294 294 293 293 292 291 291 289 286 283 281 279 276 275 274 272 270 269 271 271 271 272 274 273 274 275 276 277 276 275 274 273 271 270 269 267
293 295 296 297 297 295 294 293 291 290 288 286 283 281 278 277 276 275 273 272 272 273 275 274 276 276 276 277 278 277 276 276 275 273 272 271 269 268
295 296 298 298 299 298 297 296 294 291 290 288 285 283 280 279 279 278 275 274 276 278 278 277 277 278 279 279 278 278 277 277 275 274 273 270 269 268
296 297 299 300 301 301 300 298 297 295 292 290 289 286 282 280 280 278 278 278 279 280 280 281 280 280 280 280 278 277 276 276 275 273 272 271 270 268
297 298 299 301 303 305 304 302 300 298 295 292 291 289 286 283 281 280 281 281 281 281 282 282 281 280 280 280 279 278 277 277 275 274 273 272 271 270
298 300 301 303 304 306 306 305 303 302 299 295 292 291 289 285 284 285 284 284 284 285 285 284 283 283 283 282 281 280 279 278 276 275 274 273 272 271
299 300 302 304 305 306 306 306 305 303 301 298 296 295 295 292 290 288 287 287 288 288 287 286 285 284 284 284 283 281 280 279 278 277 276 275 274 272
299 301 304 305 306 307 308 308 307 305 303 302 301 299 298 296 293 292 290 290 289 288 288 287 287 286 286 285 284 283 282 281 279 278 277 276 275 273
300 302 303 305 306 307 308 308 307 306 305 304 302 301 299 298 296 295 293 292 291 291 291 290 289 288 287 286 285 284 283 282 281 280 279 277 275 274
300 302 303 304 305 306 306 306 306 306 306 305 304 303 301 300 298 297 296 295 294 294 293 293 291 290 289 288 286 285 284 282 281 280 279 278 277 276
301 302 304 305 305 306 306 306 306 306 306 306 305 304 303 302 301 300 299 298 298 297 296 295 293 292 290 289 287 286 285 283 282 280 279 277 277 276
302 303 304 305 305 306 307 307 307 307 307 307 307 306 305 304 304 303 302 300 299 298 297 296 294 292 290 289 288 287 286 284 283 281 280 278 277 276
301 302 304 305 306 307 308 308 308 309 309 308 308 308 307 306 305 304 303 302 301 299 298 296 294 292 290 288 287 286 286 285 284 282 281 280 278 277
302 303 304 305 307 307 308 308 309 310 310 309 309 309 308 307 306 306 306 304 302 301 300 298 295 293 291 289 286 285 286 285 285 284 283 282 281 279
303 303 304 305 306 307 308 309 310 310 310 310 310 310 310 309 309 308 308 306 305 303 302 300 297 294 292 289 286 285 285 285 286 285 284 284 283 281
303 303 305 306 307 307 308 309 310 311 311 311 311 312 311 311 311 310 309 308 307 305 303 301 299 296 293 290 288 286 284 283 284 285 284 284 284 282
303 304 305 306 307 308 309 310 311 312 312 312 312 312 312 312 312 312 311 309 307 305 303 302 300 297 294 291 290 288 286 284 283 283 283 282 283 283
303 304 305 306 307 309 310 311 312 312 313 313 313 313 312 312 312 312 312 310 307 304 303 302 300 299 296 294 292 289 287 285 284 284 282 281 282 283
304 305 306 307 308 309 310 311 312 313 313 314 314 313 313 312 312 312 312 310 307 304 302 300 299 297 295 294 293 291 289 287 286 284 284 283 282 282
304 305 306 307 308 310 311 312 313 313 314 314 314 314 313 313 313 312 312 310 307 304 301 300 298 297 295 293 291 290 290 288 286 284 284 284 283 282
305 306 307 308 309 310 311 312 313 314 314 314 314 314 313 313 313 312 312 310 308 304 301 299 298 297 297 295 292 290 290 289 287 285 283 283 283 283
306 307 308 309 310 311 312 313 314 314 314 315 314 314 313 313 313 313 312 311 308 305 302 299 298 298 298 297 295 291 289 289 289 288 285 283 281 281
307 308 309 310 311 312 313 314 314 314 315 315 314 314 314 314 314 313 313 311 309 307 304 301 299 298 298 298 296 294 291 288 288 288 288 286 285 283
Height
5726 5722 5717 5712 5707 5701 5695 5690 5685 5680 5678 5675 5672 5669 5667 5667 5666 5666 5665 5666 5665 5664 5664 5664 5664 5664 5664 5664 5664 5664 5664 5664 5664 5664 5664 5665 5665 5665
5716 5711 5706 5700 5695 5689 5683 5677 5671 5666 5663 5660 5657 5655 5653 5653 5652 5652 5651 5651 5651 5651 5650 5650 5650 5650 5650 5650 5649 5649 5649 5649 5648 5648 5648 5648 5649 5649
5705 5700 5695 5689 5683 5677 5671 5665 5659 5654 5650 5648 5645 5642 5641 5641 5640 5639 5639 5639 5638 5638 5637 5637 5636 5636 5635 5635 5634 5633 5633 5633 5632 5632 5631 5631 5631 5632
5695 5690 5685 5679 5673 5667 5660 5654 5649 5644 5640 5637 5634 5632 5631 5630 5629 5628 5627 5627 5626 5626 5625 5623 5622 5622 5621 5619 5618 5618 5617 5616 5615 5615 5614 5614 5614 5613
5685 5680 5675 5669 5664 5658 5652 5646 5641 5636 5632 5628 5626 5624 5621 5620 5618 5618 5617 5616 5615 5614 5612 5610 5609 5608 5606 5604 5603 5602 5600 5599 5598 5597 5596 5596 5595 5595
5676 5671 5666 5661 5655 5650 5644 5639 5634 5629 5625 5622 5619 5616 5614 5612 5610 5609 5607 5606 5604 5601 5599 5597 5595 5593 5591 5589 5587 5585 5584 5582 5581 5579 5578 5577 5576 5575
5667 5663 5658 5653 5647 5642 5637 5632 5627 5623 5619 5615 5612 5610 5607 5604 5602 5600 5597 5595 5592 5590 5587 5584 5582 5579 5576 5573 5570 5568 5566 5564 5562 5560 5559 5557 5556 5555
5659 5655 5650 5645 5640 5636 5631 5626 5621 5617 5613 5609 5606 5603 5600 5597 5594 5591 5587 5584 5581 5579 5574 5570 5567 5563 5559 5556 5553 5550 5548 5546 5544 5541 5539 5537 5536 5534
5651 5647 5643 5638 5633 5629 5624 5620 5615 5611 5607 5603 5599 5595 5592 5588 5584 5580 5576 5572 5568 5565 5561 5555 5551 5547 5542 5538 5535 5533 5530 5528 5525 5523 5521 5519 5517 5515
5643 5639 5635 5631 5626 5622 5618 5613 5608 5604 5600 5595 5591 5587 5582 5578 5574 5569 5564 5560 5555 5550 5546 5541 5535 5530 5525 5521 5518 5515 5512 5510 5508 5506 5503 5501 5499 5497
5636 5632 5628 5623 5619 5615 5610 5606 5601 5596 5591 5587 5582 5577 5572 5567 5562 5557 5552 5547 5541 5535 5531 5526 5520 5514 5509 5504 5500 5497 5495 5493 5491 5488 5486 5484 5482 5480
5628 5624 5620 5616 5611 5607 5602 5598 5593 5588 5583 5578 5573 5567 5562 5556 5550 5545 5539 5533 5527 5521 5516 5510 5504 5499 5494 5487 5483 5479 5477 5475 5473 5471 5469 5467 5465 5463
5620 5616 5612 5608 5603 5599 5594 5589 5584 5579 5573 5568 5562 5556 5550 5544 5538 5532 5526 5519 5513 5506 5501 5495 5488 5482 5478 5473 5467 5463 5461 5459 5457 5455 5453 5451 5450 5448
5612 5608 5604 5600 5595 5590 5585 5580 5575 5569 5563 5557 5551 5545 5538 5531 5525 5518 5511 5504 5498 5491 5485 5479 5473 5468 5463 5459 5454 5450 5447 5445 5443 5441 5439 5437 5435 5434
5604 5600 5596 5591 5587 5582 5576 5571 5565 5559 5553 5546 5540 5533 5526 5519 5512 5504 5497 5490 5483 5476 5469 5464 5459 5454 5450 5446 5442 5438 5435 5432 5430 5429 5427 5425 5423 5421
5596 5592 5587 5582 5578 5572 5567 5561 5555 5549 5542 5535 5528 5521 5513 5506 5499 5491 5484 5476 5468 5461 5456 5451 5446 5442 5437 5434 5430 5427 5423 5421 5419 5417 5416 5414 5411 5410
5587 5583 5578 5573 5568 5563 5557 5551 5544 5538 5531 5523 5516 5509 5501 5493 5486 5478 5470 5463 5456 5449 5443 5438 5434 5430 5426 5422 5419 5415 5412 5410 5408 5407 5406 5404 5401 5399
5578 5574 5569 5564 5559 5553 5547 5540 5533 5526 5519 5512 5504 5496 5489 5481 5473 5465 5458 5451 5444 5437 5432 5427 5423 5419 5416 5412 5408 5405 5402 5400 5398 5396 5395 5394 5392 5388
5569 5564 5559 5554 5548 5542 5536 5529 5522 5515 5507 5500 5492 5484 5476 5468 5460 5453 5446 5439 5432 5427 5421 5416 5412 5409 5406 5403 5399 5394 5392 5390 5388 5387 5385 5384 5382 5379
5560 5555 5549 5544 5538 5532 5525 5518 5511 5503 5495 5487 5479 5472 5464 5456 5448 5441 5434 5427 5421 5416 5410 5405 5401 5398 5396 5393 5391 5385 5380 5379 5378 5377 5375 5373 5372 5370
5550 5545 5539 5534 5527 5521 5514 5507 5499 5491 5483 5475 5467 5459 5452 5444 5437 5430 5423 5416 5410 5405 5400 5395 5391 5387 5384 5382 5380 5377 5371 5367 5366 5365 5364 5363 5362 5360
5540 5534 5529 5523 5517 5510 5503 5495 5487 5479 5471 5463 5455 5447 5440 5433 5425 5418 5412 5405 5399 5394 5390 5385 5381 5377 5373 5370 5368 5366 5363 5358 5355 5354 5352 5351 5350 5350
5529 5524 5518 5512 5505 5498 5491 5483 5475 5467 5459 5451 5443 5436 5428 5421 5414 5407 5400 5394 5389 5384 5379 5375 5371 5367 5363 5359 5357 5355 5352 5349 5346 5344 5342 5339 5339 5339